Location: Ferchesar
(52.6477°N, 12.4298°E)
Time: 03:07:16
(UTC+01:00)

Vanguard 1 - Pass Details

Date: 14 December 2021
Orbit: 652 x 3830 km, 34.2° (Epoch: 21 January)

Event Time Altitude Azimuth Distance (km) Brightness Sun altitude
Rises 00:14:29 0° 254° (WSW) 6,798 14.2 -60.5°
Enters shadow 00:14:47 - 253° (WSW) 6,748 14.2 -60.5°
Exits shadow 00:55:08 17° 126° (SE) 6,043 13.9 -59.0°
Drops below altitude 10° 00:58:15 10° 122° (ESE) 6,485 14.1 -58.8°
Sets 01:03:01 0° 117° (ESE) 7,221 14.5 -58.5°
